Location: Deerlick Astronomy Village
(33.5614°N, 82.7631°W)
Time: 12:18:52
(UTC-05:00)

Iridium 66 - Visible Passes

Search period start: 24 February 2017 00:00
Search period end: 06 March 2017 00:00
Orbit: 776 x 779 km, 86.4° (Epoch: 23 February)

Date Brightness Start Highest point End Pass type
(mag) Time Alt. Az. Time Alt. Az. Time Alt. Az.
24 Feb 6.9 19:09:23 10° NNE 19:13:48 27° E 19:18:12 10° SE visible
24 Feb 8.0 20:50:05 10° NNW 20:54:23 27° W 20:58:40 10° SW visible
25 Feb 6.8 20:15:59 10° NNW 20:21:02 52° W 20:26:04 10° SSW visible
26 Feb 5.9 19:42:20 10° N 19:47:34 81° E 19:52:47 10° S visible
27 Feb 6.4 19:09:06 10° NNE 19:14:00 41° E 19:18:53 10° SSE visible
27 Feb 8.7 20:50:53 10° NW 20:54:19 18° W 20:57:44 10° WSW visible
28 Feb 7.7 20:16:22 10° NNW 20:21:02 34° W 20:25:42 10° SSW visible
01 Mar 6.4 19:42:28 10° N 19:47:39 68° W 19:52:48 10° S visible
02 Mar 6.0 19:08:58 10° N 19:14:09 62° E 19:19:18 10° SSE visible
02 Mar 9.2 20:52:27 10° WNW 20:54:13 12° W 20:55:59 10° W visible
03 Mar 9.3 06:24:02 10° ESE 06:26:21 13° E 06:28:41 10° NE visible
03 Mar 8.4 20:16:57 10° NNW 20:21:00 23° W 20:25:03 10° SW visible
04 Mar 7.2 19:42:44 10° NNW 19:47:42 45° W 19:52:37 10° SSW visible
05 Mar 6.1 19:09:01 10° N 19:14:15 88° W 19:19:28 10° S visible
